Location: Étang Rond
(42.7927°N, 1.0661°E)
Time: 00:45:50
(UTC+00:00)

Cosmos 1782 Rocket - Pass Details

Date: 08 November 2025
Orbit: 600 x 626 km, 82.5° (Epoch: 07 December)

Event Time Altitude Azimuth Distance (km) Brightness Sun altitude
Rises 05:32:56 0° 348° (NNW) 2,904 6.8 -12.4°
Reaches altitude 10° 05:35:11 10° 345° (NNW) 1,989 5.9 -12.0°
Maximum altitude 05:39:32 60° 265° (W) 705 3.5 -11.2°
Drops below altitude 10° 05:43:47 10° 186° (S) 1,957 6.2 -10.5°
Sets 05:46:00 0° 183° (S) 2,852 7.1 -10.1°
